Погода в Лагодном

Украина / Запорожская область     47°02′56″N   35°42′43″E
темп.,
°C
ветер,
м/с
пор.,
м/с
влажн.,
%
обл.,
%
осадки,
мм/ч
давл.,
гПа
погр.,
м
20 января, ср
ср2023:00−13зсз249140 0.0 1023176
02:00−13зсз239361 0.0 1023127
05:00−14сз229433 0.0 102444
08:00−13с119017 0.0 102555
11:00−10всв007615 0.0 1027370
14:00−9ююв006915 0.0 1025422
17:00−10вюв22810 0.0 102722
20:00−11вюв23850 0.0 102753
21 января, чт
чт2123:00−11вюв34870 0.0 102877
02:00−10вюв34890 0.0 102771
05:00−9в45906 0.0 102787
08:00−8вюв47934 0.0 1028139
11:00−2вюв699053 0.0 1028294
14:000ююв578959 0.0 1026558
17:00−1юв4693100 0.0 1026158
20:00−2ююв4793100 0.0 1026120
22 января, пт
пт2223:000ююв489679 0.0 1025176
02:000ю469257 0.0 1025102
05:000ююз479140 0.0 1024138
08:00+1ююз4119236 0.0 1024210
11:00+4ю4892100 0.0 1024213
14:00+5ю4119093 0.0 1022361
17:00+4ю5129095 0.0 1021266
20:00+4ю5129098 0.0 1021261
23 января, сб
сб2323:00+4ю51191100 0.0 1021254
02:00+4ю51190100 0.0 1020276
05:00+4ю51389100 0.0 1019290
08:00+5ю51286100 0.0 1020277
11:00+6ю51384100 0.0 1019316
14:00+8ю6127679 0.0 1018459
17:00+5ю5108630 0.0 1017185
20:00+5ю6138745 0.0 1018219
24 января, вс
вс2423:00+5ю5128792 0.0 1017257
02:00+5ю5118696 0.0 1017247
05:00+4ююв6128999 0.0 1016247
08:00+5юв71388100 0.0 1016306
11:00+8ююв81375100 0.0 1015625
14:00+9ююв81372100 0.0 1014530
17:00+5юв71384100 0.0 1013313
20:00+5юв71290100 0.0 1012308